Year,Month,Day,Hour,Minute,Value (Times are PST for temperature in C)
2015,06,23,00,00,19.10
2015,06,23,00,01,19.10
2015,06,23,00,02,19.10
2015,06,23,00,03,19.10
2015,06,23,00,04,19.10
2015,06,23,00,05,19.10
2015,06,23,00,06,19.10
2015,06,23,00,07,19.10
2015,06,23,00,08,19.10
2015,06,23,00,09,19.10
2015,06,23,00,10,19.10
2015,06,23,00,11,19.10
2015,06,23,00,12,19.10
2015,06,23,00,13,19.10
2015,06,23,00,14,19.10
2015,06,23,00,15,19.10
2015,06,23,00,16,19.10
2015,06,23,00,17,19.20
2015,06,23,00,18,19.10
2015,06,23,00,19,19.10
2015,06,23,00,20,19.10
2015,06,23,00,21,19.10
2015,06,23,00,22,19.10
2015,06,23,00,23,19.10
2015,06,23,00,24,19.10
2015,06,23,00,25,19.10
2015,06,23,00,26,19.10
2015,06,23,00,27,19.10
2015,06,23,00,28,19.10
2015,06,23,00,29,19.10
2015,06,23,00,30,19.00
2015,06,23,00,31,19.10
2015,06,23,00,32,19.00
2015,06,23,00,33,19.00
2015,06,23,00,34,19.00
2015,06,23,00,35,18.90
2015,06,23,00,36,18.90
2015,06,23,00,37,18.90
2015,06,23,00,38,18.90
2015,06,23,00,39,18.80
2015,06,23,00,40,18.80
2015,06,23,00,41,18.80
2015,06,23,00,42,18.80
2015,06,23,00,43,18.80
2015,06,23,00,44,18.80
2015,06,23,00,45,18.80
2015,06,23,00,46,18.70
2015,06,23,00,47,18.70
2015,06,23,00,48,18.70
2015,06,23,00,49,18.70
2015,06,23,00,50,18.70
2015,06,23,00,51,18.70
2015,06,23,00,52,18.70
2015,06,23,00,53,18.60
2015,06,23,00,54,18.60
2015,06,23,00,55,18.60
2015,06,23,00,56,18.60
2015,06,23,00,57,18.60
2015,06,23,00,58,18.60
2015,06,23,00,59,18.60
2015,06,23,01,00,18.50
2015,06,23,01,01,18.50
2015,06,23,01,02,18.40
2015,06,23,01,03,18.40
2015,06,23,01,04,18.40
2015,06,23,01,05,18.40
2015,06,23,01,06,18.40
2015,06,23,01,07,18.30
2015,06,23,01,08,18.30
2015,06,23,01,09,18.30
2015,06,23,01,10,18.30
2015,06,23,01,11,18.30
2015,06,23,01,12,18.30
2015,06,23,01,13,18.30
2015,06,23,01,14,18.30
2015,06,23,01,15,18.20
2015,06,23,01,16,18.20
2015,06,23,01,17,18.20
2015,06,23,01,18,18.20
2015,06,23,01,19,18.20
2015,06,23,01,20,18.20
2015,06,23,01,21,18.20
2015,06,23,01,22,18.20
2015,06,23,01,23,18.20
2015,06,23,01,24,18.10
2015,06,23,01,25,18.10
2015,06,23,01,26,18.10
2015,06,23,01,27,18.10
2015,06,23,01,28,18.20
2015,06,23,01,29,18.20
2015,06,23,01,30,18.20
2015,06,23,01,31,18.20
2015,06,23,01,32,18.10
2015,06,23,01,33,18.10
2015,06,23,01,34,18.10
2015,06,23,01,35,18.00
2015,06,23,01,36,17.90
2015,06,23,01,37,17.90
2015,06,23,01,38,17.90
2015,06,23,01,39,17.80
2015,06,23,01,40,17.80
2015,06,23,01,41,17.70
2015,06,23,01,42,17.60
2015,06,23,01,43,17.50
2015,06,23,01,44,17.50
2015,06,23,01,45,17.40
2015,06,23,01,46,17.40
2015,06,23,01,47,17.30
2015,06,23,01,48,17.30
2015,06,23,01,49,17.20
2015,06,23,01,50,17.20
2015,06,23,01,51,17.10
2015,06,23,01,52,17.00
2015,06,23,01,53,16.90
2015,06,23,01,54,16.90
2015,06,23,01,55,16.80
2015,06,23,01,56,16.70
2015,06,23,01,57,16.60
2015,06,23,01,58,16.50
2015,06,23,01,59,16.40
2015,06,23,02,00,16.30
2015,06,23,02,01,16.20
2015,06,23,02,02,16.10
2015,06,23,02,03,16.10
2015,06,23,02,04,16.00
2015,06,23,02,05,15.90
2015,06,23,02,06,15.80
2015,06,23,02,07,15.80
2015,06,23,02,08,15.70
2015,06,23,02,09,15.70
2015,06,23,02,10,15.60
2015,06,23,02,11,15.60
2015,06,23,02,12,15.50
2015,06,23,02,13,15.50
2015,06,23,02,14,15.50
2015,06,23,02,15,15.40
2015,06,23,02,16,15.40
2015,06,23,02,17,15.40
2015,06,23,02,18,15.30
2015,06,23,02,19,15.30
2015,06,23,02,20,15.20
2015,06,23,02,21,15.20
2015,06,23,02,22,15.20
2015,06,23,02,23,15.20
2015,06,23,02,24,15.10
2015,06,23,02,25,15.10
2015,06,23,02,26,15.00
2015,06,23,02,27,15.00
2015,06,23,02,28,14.90
2015,06,23,02,29,14.90
2015,06,23,02,30,14.90
2015,06,23,02,31,14.90
2015,06,23,02,32,14.80
2015,06,23,02,33,14.80
2015,06,23,02,34,14.80
2015,06,23,02,35,14.80
2015,06,23,02,36,14.80
2015,06,23,02,37,14.80
2015,06,23,02,38,14.80
2015,06,23,02,39,14.70
2015,06,23,02,40,14.70
2015,06,23,02,41,14.70
2015,06,23,02,42,14.70
2015,06,23,02,43,14.70
2015,06,23,02,44,14.60
2015,06,23,02,45,14.60
2015,06,23,02,46,14.60
2015,06,23,02,47,14.50
2015,06,23,02,48,14.40
2015,06,23,02,49,14.40
2015,06,23,02,50,14.30
2015,06,23,02,51,14.30
2015,06,23,02,52,14.20
2015,06,23,02,53,14.10
2015,06,23,02,54,14.10
2015,06,23,02,55,14.00
2015,06,23,02,56,14.00
2015,06,23,02,57,14.00
2015,06,23,02,58,13.90
2015,06,23,02,59,13.90
2015,06,23,03,00,13.80
2015,06,23,03,01,13.80
2015,06,23,03,02,13.80
2015,06,23,03,06,13.70
2015,06,23,03,07,13.60
2015,06,23,03,08,13.60
2015,06,23,03,09,13.60
2015,06,23,03,10,13.60
2015,06,23,03,11,13.50
2015,06,23,03,12,13.50
2015,06,23,03,13,13.50
2015,06,23,03,14,13.50
2015,06,23,03,15,13.40
2015,06,23,03,16,13.40
2015,06,23,03,17,13.40
2015,06,23,03,18,13.40
2015,06,23,03,19,13.30
2015,06,23,03,20,13.30
2015,06,23,03,21,13.30
2015,06,23,03,22,13.20
2015,06,23,03,23,13.20
2015,06,23,03,24,13.10
2015,06,23,03,25,13.10
2015,06,23,03,26,13.10
2015,06,23,03,27,13.10
2015,06,23,03,28,13.00
2015,06,23,03,29,13.00
2015,06,23,03,30,12.90
2015,06,23,03,31,12.90
2015,06,23,03,32,12.90
2015,06,23,03,33,12.90
2015,06,23,03,34,12.80
2015,06,23,03,35,12.80
2015,06,23,03,36,12.80
2015,06,23,03,37,12.80
2015,06,23,03,38,12.70
2015,06,23,03,39,12.70
2015,06,23,03,40,12.70
2015,06,23,03,41,12.60
2015,06,23,03,42,12.60
2015,06,23,03,43,12.50
2015,06,23,03,44,12.50
2015,06,23,03,45,12.50
2015,06,23,03,46,12.40
2015,06,23,03,47,12.40
2015,06,23,03,48,12.40
2015,06,23,03,49,12.40
2015,06,23,03,50,12.40
2015,06,23,03,51,12.30
2015,06,23,03,52,12.30
2015,06,23,03,53,12.30
2015,06,23,03,54,12.20
2015,06,23,03,55,12.20
2015,06,23,03,56,12.20
2015,06,23,03,57,12.20
2015,06,23,03,58,12.20
2015,06,23,03,59,12.10
2015,06,23,04,00,12.10
2015,06,23,04,01,12.10
2015,06,23,04,02,12.10
2015,06,23,04,03,12.10
2015,06,23,04,04,12.00
2015,06,23,04,05,12.00
2015,06,23,04,06,11.90
2015,06,23,04,07,11.90
2015,06,23,04,08,11.90
2015,06,23,04,09,11.80
2015,06,23,04,10,11.80
2015,06,23,04,11,11.80
2015,06,23,04,12,11.80
2015,06,23,04,13,11.80
2015,06,23,04,14,11.80
2015,06,23,04,15,11.70
2015,06,23,04,16,11.70
2015,06,23,04,17,11.70
2015,06,23,04,18,11.70
2015,06,23,04,19,11.70
2015,06,23,04,20,11.70
2015,06,23,04,21,11.60
2015,06,23,04,22,11.60
2015,06,23,04,23,11.60
2015,06,23,04,24,11.60
2015,06,23,04,25,11.60
2015,06,23,04,26,11.50
2015,06,23,04,27,11.50
2015,06,23,04,28,11.50
2015,06,23,04,29,11.40
2015,06,23,04,30,11.40
2015,06,23,04,31,11.40
2015,06,23,04,32,11.40
2015,06,23,04,33,11.30
2015,06,23,04,34,11.30
2015,06,23,04,35,11.30
2015,06,23,04,36,11.30
2015,06,23,04,37,11.20
2015,06,23,04,38,11.20
2015,06,23,04,39,11.20
2015,06,23,04,40,11.20
2015,06,23,04,41,11.20
2015,06,23,04,42,11.20
2015,06,23,04,43,11.10
2015,06,23,04,44,11.10
2015,06,23,04,45,11.10
2015,06,23,04,46,11.10
2015,06,23,04,47,11.10
2015,06,23,04,48,11.10
2015,06,23,04,49,11.00
2015,06,23,04,50,11.00
2015,06,23,04,51,11.00
2015,06,23,04,52,10.90
2015,06,23,04,53,10.90
2015,06,23,04,54,10.90
2015,06,23,04,55,10.90
2015,06,23,04,56,10.80
2015,06,23,04,57,10.80
2015,06,23,04,58,10.80
2015,06,23,04,59,10.80
2015,06,23,05,00,10.80
2015,06,23,05,01,10.80
2015,06,23,05,02,10.80
2015,06,23,05,03,10.80
2015,06,23,05,04,10.70
2015,06,23,05,05,10.70
2015,06,23,05,06,10.70
2015,06,23,05,07,10.70
2015,06,23,05,08,10.70
2015,06,23,05,09,10.60
2015,06,23,05,10,10.60
2015,06,23,05,11,10.60
2015,06,23,05,12,10.60
2015,06,23,05,13,10.60
2015,06,23,05,14,10.60
2015,06,23,05,15,10.50
2015,06,23,05,16,10.50
2015,06,23,05,17,10.50
2015,06,23,05,18,10.50
2015,06,23,05,19,10.50
2015,06,23,05,20,10.50
2015,06,23,05,21,10.40
2015,06,23,05,22,10.40
2015,06,23,05,23,10.40
2015,06,23,05,24,10.40
2015,06,23,05,25,10.40
2015,06,23,05,26,10.40
2015,06,23,05,27,10.40
2015,06,23,05,28,10.40
2015,06,23,05,29,10.40
2015,06,23,05,30,10.40
2015,06,23,05,31,10.40
2015,06,23,05,32,10.40
2015,06,23,05,33,10.30
2015,06,23,05,34,10.30
2015,06,23,05,35,10.30
2015,06,23,05,36,10.30
2015,06,23,05,37,10.30
2015,06,23,05,38,10.30
2015,06,23,05,39,10.30
2015,06,23,05,40,10.30
2015,06,23,05,41,10.30
2015,06,23,05,42,10.30
2015,06,23,05,43,10.30
2015,06,23,05,44,10.20
2015,06,23,05,45,10.30
2015,06,23,05,46,10.20
2015,06,23,05,47,10.20
2015,06,23,05,48,10.20
2015,06,23,05,49,10.20
2015,06,23,05,50,10.20
2015,06,23,05,51,10.20
2015,06,23,05,52,10.30
2015,06,23,05,53,10.30
2015,06,23,05,54,10.30
2015,06,23,05,55,10.30
2015,06,23,05,56,10.30
2015,06,23,05,57,10.30
2015,06,23,05,58,10.30
2015,06,23,05,59,10.30
2015,06,23,06,00,10.30
2015,06,23,06,01,10.30
2015,06,23,06,02,10.30
2015,06,23,06,03,10.30
2015,06,23,06,04,10.30
2015,06,23,06,05,10.30
2015,06,23,06,06,10.30
2015,06,23,06,07,10.30
2015,06,23,06,08,10.30
2015,06,23,06,09,10.30
2015,06,23,06,10,10.30
2015,06,23,06,11,10.40
2015,06,23,06,12,10.40
2015,06,23,06,13,10.40
2015,06,23,06,14,10.40
2015,06,23,06,15,10.40
2015,06,23,06,16,10.50
2015,06,23,06,17,10.50
2015,06,23,06,18,10.50
2015,06,23,06,19,10.50
2015,06,23,06,20,10.60
2015,06,23,06,21,10.60
2015,06,23,06,22,10.60
2015,06,23,06,23,10.60
2015,06,23,06,24,10.70
2015,06,23,06,25,10.70
2015,06,23,06,26,10.70
2015,06,23,06,27,10.70
2015,06,23,06,28,10.70
2015,06,23,06,29,10.70
2015,06,23,06,30,10.70
2015,06,23,06,31,10.80
2015,06,23,06,32,10.80
2015,06,23,06,33,10.80
2015,06,23,06,34,10.80
2015,06,23,06,35,10.90
2015,06,23,06,36,10.90
2015,06,23,06,37,10.90
2015,06,23,06,38,11.00
2015,06,23,06,39,11.10
2015,06,23,06,40,11.10
2015,06,23,06,41,11.10
2015,06,23,06,42,11.20
2015,06,23,06,43,11.20
2015,06,23,06,44,11.30
2015,06,23,06,45,11.30
2015,06,23,06,46,11.40
2015,06,23,06,47,11.40
2015,06,23,06,48,11.50
2015,06,23,06,49,11.60
2015,06,23,06,50,11.60
2015,06,23,06,51,11.70
2015,06,23,06,52,11.80
2015,06,23,06,53,11.90
2015,06,23,06,54,12.00
2015,06,23,06,55,12.10
2015,06,23,06,56,12.30
2015,06,23,06,57,12.40
2015,06,23,06,58,12.50
2015,06,23,06,59,12.60
2015,06,23,07,00,12.70
2015,06,23,07,01,12.80
2015,06,23,07,02,12.80
2015,06,23,07,03,12.90
2015,06,23,07,04,13.00
2015,06,23,07,05,13.10
2015,06,23,07,06,13.20
2015,06,23,07,07,13.30
2015,06,23,07,08,13.30
2015,06,23,07,09,13.40
2015,06,23,07,10,13.40
2015,06,23,07,11,13.50
2015,06,23,07,12,13.60
2015,06,23,07,13,13.60
2015,06,23,07,14,13.60
2015,06,23,07,15,13.70
2015,06,23,07,16,13.70
2015,06,23,07,17,13.70
2015,06,23,07,18,13.80
2015,06,23,07,19,13.80
2015,06,23,07,20,13.80
2015,06,23,07,21,13.80
2015,06,23,07,22,13.80
2015,06,23,07,23,13.80
2015,06,23,07,24,13.80
2015,06,23,07,25,13.90
2015,06,23,07,26,13.90
2015,06,23,07,27,14.00
2015,06,23,07,28,14.00
2015,06,23,07,29,14.10
2015,06,23,07,30,14.10
2015,06,23,07,31,14.20
2015,06,23,07,32,14.20
2015,06,23,07,33,14.30
2015,06,23,07,34,14.30
2015,06,23,07,35,14.30
2015,06,23,07,36,14.30
2015,06,23,07,37,14.30
2015,06,23,07,38,14.40
2015,06,23,07,39,14.40
2015,06,23,07,40,14.50
2015,06,23,07,41,14.50
2015,06,23,07,42,14.60
2015,06,23,07,43,14.60
2015,06,23,07,44,14.70
2015,06,23,07,45,14.70
2015,06,23,07,46,14.80
2015,06,23,07,47,14.80
2015,06,23,07,48,14.80
2015,06,23,07,49,14.90
2015,06,23,07,50,14.90
2015,06,23,07,51,14.90
2015,06,23,07,52,15.00
2015,06,23,07,53,15.00
2015,06,23,07,54,15.10
2015,06,23,07,55,15.10
2015,06,23,07,56,15.10
2015,06,23,07,57,15.20
2015,06,23,07,58,15.20
2015,06,23,07,59,15.20
2015,06,23,08,00,15.20
2015,06,23,08,01,15.20
2015,06,23,08,02,15.20
2015,06,23,08,03,15.20
2015,06,23,08,04,15.20
2015,06,23,08,05,15.20
2015,06,23,08,06,15.30
2015,06,23,08,07,15.30
2015,06,23,08,08,15.30
2015,06,23,08,09,15.30
2015,06,23,08,10,15.30
2015,06,23,08,11,15.30
2015,06,23,08,12,15.40
2015,06,23,08,13,15.40
2015,06,23,08,14,15.40
2015,06,23,08,15,15.40
2015,06,23,08,16,15.50
2015,06,23,08,17,15.50
2015,06,23,08,18,15.50
2015,06,23,08,19,15.60
2015,06,23,08,20,15.50
2015,06,23,08,21,15.50
2015,06,23,08,22,15.40
2015,06,23,08,23,15.30
2015,06,23,08,24,15.20
2015,06,23,08,25,15.10
2015,06,23,08,26,15.00
2015,06,23,08,27,15.00
2015,06,23,08,28,14.90
2015,06,23,08,29,14.90
2015,06,23,08,30,14.80
2015,06,23,08,31,14.80
2015,06,23,08,32,14.80
2015,06,23,08,33,14.80
2015,06,23,08,34,14.80
2015,06,23,08,35,14.80
2015,06,23,08,36,14.80
2015,06,23,08,37,14.80
2015,06,23,08,38,14.80
2015,06,23,08,39,14.80
2015,06,23,08,40,14.90
2015,06,23,08,41,14.90
2015,06,23,08,42,14.90
2015,06,23,08,43,14.90
2015,06,23,08,44,15.00
2015,06,23,08,45,15.00
2015,06,23,08,46,15.00
2015,06,23,08,47,15.00
2015,06,23,08,48,15.00
2015,06,23,08,49,15.00
2015,06,23,08,50,15.00
2015,06,23,08,51,15.00
2015,06,23,08,52,15.00
2015,06,23,08,53,15.00
2015,06,23,08,54,15.00
2015,06,23,08,55,15.10
2015,06,23,08,56,15.10
2015,06,23,08,57,15.10
2015,06,23,08,58,15.20
2015,06,23,08,59,15.20
2015,06,23,09,00,15.20
2015,06,23,09,01,15.20
2015,06,23,09,02,15.20
2015,06,23,09,03,15.20
2015,06,23,09,04,15.20
2015,06,23,09,05,15.20
2015,06,23,09,06,15.20
2015,06,23,09,07,15.20
2015,06,23,09,08,15.20
2015,06,23,09,09,15.20
2015,06,23,09,10,15.20
2015,06,23,09,11,15.20
2015,06,23,09,12,15.20
2015,06,23,09,13,15.20
2015,06,23,09,14,15.20
2015,06,23,09,15,15.30
2015,06,23,09,16,15.30
2015,06,23,09,17,15.30
2015,06,23,09,18,15.30
2015,06,23,09,19,15.30
2015,06,23,09,20,15.40
2015,06,23,09,21,15.40
2015,06,23,09,22,15.40
2015,06,23,09,23,15.40
2015,06,23,09,24,15.40
2015,06,23,09,25,15.50
2015,06,23,09,26,15.40
2015,06,23,09,27,15.50
2015,06,23,09,28,15.50
2015,06,23,09,29,15.50
2015,06,23,09,30,15.60
2015,06,23,09,31,15.60
2015,06,23,09,32,15.60
2015,06,23,09,33,15.50
2015,06,23,09,34,15.50
2015,06,23,09,35,15.40
2015,06,23,09,36,15.40
2015,06,23,09,37,15.40
2015,06,23,09,38,15.40
2015,06,23,09,39,15.40
2015,06,23,09,40,15.40
2015,06,23,09,41,15.40
2015,06,23,09,42,15.40
2015,06,23,09,43,15.50
2015,06,23,09,44,15.50
2015,06,23,09,45,15.50
2015,06,23,09,46,15.60
2015,06,23,09,47,15.60
2015,06,23,09,48,15.60
2015,06,23,09,49,15.60
2015,06,23,09,50,15.60
2015,06,23,09,51,15.60
2015,06,23,09,52,15.60
2015,06,23,09,53,15.60
2015,06,23,09,54,15.70
2015,06,23,09,55,15.70
2015,06,23,09,56,15.80
2015,06,23,09,57,15.90
2015,06,23,09,58,15.90
2015,06,23,09,59,16.00
2015,06,23,10,00,16.00
2015,06,23,10,01,16.10
2015,06,23,10,02,16.10
2015,06,23,10,03,16.20
2015,06,23,10,04,16.20
2015,06,23,10,05,16.20
2015,06,23,10,06,16.20
2015,06,23,10,07,16.20
2015,06,23,10,08,16.30
2015,06,23,10,09,16.30
2015,06,23,10,10,16.30
2015,06,23,10,11,16.30
2015,06,23,10,12,16.30
2015,06,23,10,13,16.30
2015,06,23,10,14,16.40
2015,06,23,10,15,16.40
2015,06,23,10,16,16.40
2015,06,23,10,17,16.50
2015,06,23,10,18,16.50
2015,06,23,10,19,16.60
2015,06,23,10,20,16.60
2015,06,23,10,21,16.60
2015,06,23,10,22,16.60
2015,06,23,10,23,16.60
2015,06,23,10,24,16.60
2015,06,23,10,25,16.50
2015,06,23,10,26,16.50
2015,06,23,10,27,16.40
2015,06,23,10,28,16.40
2015,06,23,10,29,16.40
2015,06,23,10,30,16.50
2015,06,23,10,31,16.50
2015,06,23,10,32,16.60
2015,06,23,10,33,16.60
2015,06,23,10,34,16.60
2015,06,23,10,35,16.60
2015,06,23,10,36,16.60
2015,06,23,10,37,16.60
2015,06,23,10,38,16.60
2015,06,23,10,39,16.60
2015,06,23,10,40,16.60
2015,06,23,10,41,16.60
2015,06,23,10,42,16.60
2015,06,23,10,43,16.60
2015,06,23,10,44,16.60
2015,06,23,10,45,16.60
2015,06,23,10,46,16.60
2015,06,23,10,47,16.60
2015,06,23,10,48,16.60
2015,06,23,10,49,16.60
2015,06,23,10,50,16.70
2015,06,23,10,51,16.70
2015,06,23,10,52,16.70
2015,06,23,10,53,16.60
2015,06,23,10,54,16.60
2015,06,23,10,55,16.60
2015,06,23,10,56,16.50
2015,06,23,10,57,16.50
2015,06,23,10,58,16.40
2015,06,23,10,59,16.30
2015,06,23,11,00,16.30
2015,06,23,11,01,16.40
2015,06,23,11,02,16.40
2015,06,23,11,03,16.50
2015,06,23,11,04,16.50
2015,06,23,11,05,16.60
2015,06,23,11,06,16.50
2015,06,23,11,07,16.50
2015,06,23,11,08,16.50
2015,06,23,11,09,16.40
2015,06,23,11,10,16.40
2015,06,23,11,11,16.40
2015,06,23,11,12,16.40
2015,06,23,11,13,16.40
2015,06,23,11,14,16.50
2015,06,23,11,15,16.50
2015,06,23,11,16,16.60
2015,06,23,11,17,16.60
2015,06,23,11,18,16.50
2015,06,23,11,19,16.60
2015,06,23,11,20,16.60
2015,06,23,11,21,16.60
2015,06,23,11,22,16.70
2015,06,23,11,23,16.80
2015,06,23,11,24,16.90
2015,06,23,11,25,17.00
2015,06,23,11,26,17.10
2015,06,23,11,27,17.10
2015,06,23,11,28,17.10
2015,06,23,11,29,17.10
2015,06,23,11,30,17.10
2015,06,23,11,31,17.10
2015,06,23,11,32,17.10
2015,06,23,11,33,17.10
2015,06,23,11,34,17.10
2015,06,23,11,35,17.10
2015,06,23,11,36,17.10
2015,06,23,11,37,17.10
2015,06,23,11,38,17.20
2015,06,23,11,39,17.20
2015,06,23,11,40,17.30
2015,06,23,11,41,17.30
2015,06,23,11,42,17.30
2015,06,23,11,43,17.30
2015,06,23,11,44,17.30
2015,06,23,11,45,17.40
2015,06,23,11,46,17.30
2015,06,23,11,47,17.30
2015,06,23,11,48,17.20
2015,06,23,11,49,17.20
2015,06,23,11,50,17.20
2015,06,23,11,51,17.20
2015,06,23,11,52,17.30
2015,06,23,11,53,17.40
2015,06,23,11,54,17.50
2015,06,23,11,55,17.60
2015,06,23,11,56,17.70
2015,06,23,11,57,17.70
2015,06,23,11,58,17.80
2015,06,23,11,59,17.80
2015,06,23,12,00,17.80
2015,06,23,12,01,17.70
2015,06,23,12,02,17.70
2015,06,23,12,03,17.70
2015,06,23,12,04,17.70
2015,06,23,12,05,17.80
2015,06,23,12,06,17.90
2015,06,23,12,07,17.90
2015,06,23,12,08,17.90
2015,06,23,12,09,17.90
2015,06,23,12,10,17.90
2015,06,23,12,11,17.80
2015,06,23,12,12,17.80
2015,06,23,12,13,17.80
2015,06,23,12,14,17.80
2015,06,23,12,15,17.70
2015,06,23,12,16,17.60
2015,06,23,12,17,17.60
2015,06,23,12,18,17.60
2015,06,23,12,19,17.60
2015,06,23,12,20,17.60
2015,06,23,12,21,17.60
2015,06,23,12,22,17.70
2015,06,23,12,23,17.80
2015,06,23,12,24,17.80
2015,06,23,12,25,17.90
2015,06,23,12,26,18.00
2015,06,23,12,27,18.00
2015,06,23,12,28,18.10
2015,06,23,12,29,18.10
2015,06,23,12,30,18.20
2015,06,23,12,31,18.20
2015,06,23,12,32,18.20
2015,06,23,12,33,18.20
2015,06,23,12,34,18.20
2015,06,23,12,35,18.20
2015,06,23,12,36,18.10
2015,06,23,12,37,18.00
2015,06,23,12,38,18.00
2015,06,23,12,39,17.90
2015,06,23,12,40,17.90
2015,06,23,12,41,17.90
2015,06,23,12,42,17.80
2015,06,23,12,43,17.80
2015,06,23,12,44,17.70
2015,06,23,12,45,17.70
2015,06,23,12,46,17.70
2015,06,23,12,47,17.70
2015,06,23,12,48,17.80
2015,06,23,12,49,17.80
2015,06,23,12,50,17.90
2015,06,23,12,51,18.00
2015,06,23,12,52,18.10
2015,06,23,12,53,18.10
2015,06,23,12,54,18.10
2015,06,23,12,55,18.10
2015,06,23,12,56,18.10
2015,06,23,12,57,18.10
2015,06,23,12,58,18.10
2015,06,23,12,59,18.20
2015,06,23,13,00,18.30
2015,06,23,13,01,18.40
2015,06,23,13,02,18.50
2015,06,23,13,03,18.60
2015,06,23,13,04,18.60
2015,06,23,13,05,18.60
2015,06,23,13,06,18.50
2015,06,23,13,07,18.40
2015,06,23,13,08,18.30
2015,06,23,13,09,18.30
2015,06,23,13,10,18.30
2015,06,23,13,11,18.30
2015,06,23,13,12,18.30
2015,06,23,13,13,18.30
2015,06,23,13,14,18.30
2015,06,23,13,15,18.30
2015,06,23,13,16,18.30
2015,06,23,13,17,18.40
2015,06,23,13,18,18.40
2015,06,23,13,19,18.40
2015,06,23,13,20,18.40
2015,06,23,13,21,18.40
2015,06,23,13,22,18.40
2015,06,23,13,23,18.40
2015,06,23,13,24,18.40
2015,06,23,13,25,18.40
2015,06,23,13,26,18.40
2015,06,23,13,27,18.40
2015,06,23,13,28,18.40
2015,06,23,13,29,18.40
2015,06,23,13,30,18.40
2015,06,23,13,31,18.40
2015,06,23,13,32,18.40
2015,06,23,13,33,18.40
2015,06,23,13,34,18.30
2015,06,23,13,35,18.30
2015,06,23,13,36,18.30
2015,06,23,13,37,18.30
2015,06,23,13,38,18.30
2015,06,23,13,39,18.30
2015,06,23,13,40,18.40
2015,06,23,13,41,18.40
2015,06,23,13,42,18.40
2015,06,23,13,43,18.40
2015,06,23,13,44,18.40
2015,06,23,13,45,18.40
2015,06,23,13,46,18.40
2015,06,23,13,47,18.50
2015,06,23,13,48,18.50
2015,06,23,13,49,18.60
2015,06,23,13,50,18.60
2015,06,23,13,51,18.70
2015,06,23,13,52,18.80
2015,06,23,13,53,18.80
2015,06,23,13,54,18.90
2015,06,23,13,55,19.00
2015,06,23,13,56,19.10
2015,06,23,13,57,19.10
2015,06,23,13,58,19.20
2015,06,23,13,59,19.10
2015,06,23,14,00,19.10
2015,06,23,14,01,19.10
2015,06,23,14,02,19.10
2015,06,23,14,03,19.10
2015,06,23,14,04,19.10
2015,06,23,14,05,19.10
2015,06,23,14,06,19.10
2015,06,23,14,07,19.10
2015,06,23,14,08,19.10
2015,06,23,14,09,19.10
2015,06,23,14,10,19.10
2015,06,23,14,11,19.10
2015,06,23,14,12,19.00
2015,06,23,14,13,19.00
2015,06,23,14,14,18.90
2015,06,23,14,15,18.90
2015,06,23,14,16,19.00
2015,06,23,14,17,19.10
2015,06,23,14,18,19.00
2015,06,23,14,19,18.90
2015,06,23,14,20,18.90
2015,06,23,14,21,18.90
2015,06,23,14,22,19.00
2015,06,23,14,23,19.10
2015,06,23,14,24,19.10
2015,06,23,14,25,19.20
2015,06,23,14,26,19.20
2015,06,23,14,27,19.20
2015,06,23,14,28,19.20
2015,06,23,14,29,19.20
2015,06,23,14,30,19.20
2015,06,23,14,31,19.20
2015,06,23,14,32,19.20
2015,06,23,14,33,19.10
2015,06,23,14,34,19.10
2015,06,23,14,35,19.10
2015,06,23,14,36,19.10
2015,06,23,14,37,19.00
2015,06,23,14,38,19.00
2015,06,23,14,39,19.10
2015,06,23,14,40,19.10
2015,06,23,14,41,19.20
2015,06,23,14,42,19.20
2015,06,23,14,43,19.20
2015,06,23,14,44,19.20
2015,06,23,14,45,19.10
2015,06,23,14,46,19.10
2015,06,23,14,47,19.10
2015,06,23,14,48,19.10
2015,06,23,14,49,19.10
2015,06,23,14,50,19.00
2015,06,23,14,51,19.00
2015,06,23,14,52,19.00
2015,06,23,14,53,18.90
2015,06,23,14,54,18.80
2015,06,23,14,55,18.70
2015,06,23,14,56,18.70
2015,06,23,14,57,18.70
2015,06,23,14,58,18.70
2015,06,23,14,59,18.70
2015,06,23,15,00,18.80
2015,06,23,15,01,18.80
2015,06,23,15,02,18.80
2015,06,23,15,03,18.80
2015,06,23,15,04,18.90
2015,06,23,15,05,18.90
2015,06,23,15,06,18.90
2015,06,23,15,07,19.00
2015,06,23,15,08,19.00
2015,06,23,15,09,19.00
2015,06,23,15,10,19.10
2015,06,23,15,11,19.10
2015,06,23,15,12,19.10
2015,06,23,15,13,19.20
2015,06,23,15,14,19.20
2015,06,23,15,15,19.30
2015,06,23,15,16,19.30
2015,06,23,15,17,19.40
2015,06,23,15,18,19.40
2015,06,23,15,19,19.50
2015,06,23,15,20,19.50
2015,06,23,15,21,19.50
2015,06,23,15,22,19.40
2015,06,23,15,23,19.40
2015,06,23,15,24,19.30
2015,06,23,15,25,19.30
2015,06,23,15,26,19.30
2015,06,23,15,27,19.20
2015,06,23,15,28,19.20
2015,06,23,15,29,19.20
2015,06,23,15,30,19.30
2015,06,23,15,31,19.30
2015,06,23,15,32,19.40
2015,06,23,15,33,19.50
2015,06,23,15,34,19.60
2015,06,23,15,35,19.70
2015,06,23,15,36,19.70
2015,06,23,15,37,19.70
2015,06,23,15,38,19.70
2015,06,23,15,39,19.60
2015,06,23,15,40,19.60
2015,06,23,15,41,19.50
2015,06,23,15,42,19.50
2015,06,23,15,43,19.50
2015,06,23,15,44,19.40
2015,06,23,15,45,19.50
2015,06,23,15,46,19.50
2015,06,23,15,47,19.50
2015,06,23,15,48,19.40
2015,06,23,15,49,19.40
2015,06,23,15,50,19.40
2015,06,23,15,51,19.30
2015,06,23,15,52,19.30
2015,06,23,15,53,19.40
2015,06,23,15,54,19.40
2015,06,23,15,55,19.40
2015,06,23,15,56,19.40
2015,06,23,15,57,19.30
2015,06,23,15,58,19.30
2015,06,23,15,59,19.30
2015,06,23,16,00,19.30
2015,06,23,16,01,19.30
2015,06,23,16,02,19.30
2015,06,23,16,03,19.30
2015,06,23,16,04,19.40
2015,06,23,16,05,19.40
2015,06,23,16,06,19.40
2015,06,23,16,07,19.40
2015,06,23,16,08,19.40
2015,06,23,16,09,19.30
2015,06,23,16,10,19.30
2015,06,23,16,11,19.20
2015,06,23,16,12,19.20
2015,06,23,16,13,19.30
2015,06,23,16,14,19.30
2015,06,23,16,15,19.30
2015,06,23,16,16,19.30
2015,06,23,16,17,19.30
2015,06,23,16,18,19.20
2015,06,23,16,19,19.20
2015,06,23,16,20,19.20
2015,06,23,16,21,19.20
2015,06,23,16,22,19.20
2015,06,23,16,23,19.20
2015,06,23,16,24,19.20
2015,06,23,16,25,19.20
2015,06,23,16,26,19.20
2015,06,23,16,27,19.30
2015,06,23,16,28,19.40
2015,06,23,16,29,19.50
2015,06,23,16,30,19.50
2015,06,23,16,31,19.60
2015,06,23,16,32,19.60
2015,06,23,16,33,19.60
2015,06,23,16,34,19.50
2015,06,23,16,35,19.50
2015,06,23,16,36,19.40
2015,06,23,16,37,19.50
2015,06,23,16,38,19.50
2015,06,23,16,39,19.60
2015,06,23,16,40,19.60
2015,06,23,16,41,19.70
2015,06,23,16,42,19.70
2015,06,23,16,43,19.70
2015,06,23,16,44,19.70
2015,06,23,16,45,19.70
2015,06,23,16,46,19.70
2015,06,23,16,47,19.60
2015,06,23,16,48,19.60
2015,06,23,16,49,19.50
2015,06,23,16,50,19.40
2015,06,23,16,51,19.30
2015,06,23,16,52,19.20
2015,06,23,16,53,19.20
2015,06,23,16,54,19.20
2015,06,23,16,55,19.20
2015,06,23,16,56,19.20
2015,06,23,16,57,19.20
2015,06,23,16,58,19.20
2015,06,23,16,59,19.20
2015,06,23,17,00,19.20
2015,06,23,17,01,19.30
2015,06,23,17,02,19.30
2015,06,23,17,03,19.20
2015,06,23,17,04,19.20
2015,06,23,17,05,19.20
2015,06,23,17,06,19.20
2015,06,23,17,07,19.20
2015,06,23,17,08,19.20
2015,06,23,17,09,19.10
2015,06,23,17,10,19.10
2015,06,23,17,11,19.10
2015,06,23,17,12,19.10
2015,06,23,17,13,19.10
2015,06,23,17,14,19.00
2015,06,23,17,15,19.00
2015,06,23,17,16,18.90
2015,06,23,17,17,18.80
2015,06,23,17,18,18.80
2015,06,23,17,19,18.80
2015,06,23,17,20,18.80
2015,06,23,17,21,18.80
2015,06,23,17,22,18.80